Home   Weather   Saint-Louis   Past weeks
Flag for Senegal

Past Weather in Saint-Louis, Senegal — Yesterday and Last 2 Weeks

Now
68 °F

Low clouds.


Feels Like: 68 °F
Forecast: 84 / 68 °F
Wind: 5 mph from Northwest

Location: Saint Airport-Louis

Current Time: May 25, 2020 at 5:30:50 am

Latest Report: May 25, 2020 at 3:00 am


Visibility: N/A

Pressure: 29.92 "Hg

Humidity: 94%

Dew Point: 66 °F

Location of Saint-LouisLocation

Past Weather in Saint-Louis — Graph

°F

Saint-Louis Temperature Yesterday

Maximum temperature yesterday: 81 °F (at 2:00 pm)
Minimum temperature yesterday: 68 °F (at 12:00 am)
Average temperature yesterday: 73 °F

High & Low Weather Summary for the Past Weeks

 TemperatureHumidityPressure
High90 °F (May 13, 1:00 pm)100% (May 19, 6:00 am)30.01 "Hg (May 19, 6:00 am)
Low66 °F (May 12, 6:00 am)40% (May 16, 3:00 pm)29.80 "Hg (May 10, 4:00 am)
Average75 °F73%29.89 "Hg
* Reported May 10 3:00 am — May 25 3:00 am, Saint-Louis. Weather by CustomWeather, © 2020

Note: Actual official high and low records may vary slightly from our data, if they occured in-between our weather recording intervals... More about our weather records

Saint-Louis Weather History for the Previous 24 Hours

Scroll right to see more
 ConditionsComfort  
Time TempWeatherWind HumidityBarometerVisibility
3:00 am
Mon, May 25
68 °FLow clouds.5 mph94%29.92 "HgN/A
2:00 am68 °FLow clouds.7 mph94%29.92 "HgN/A
1:00 am70 °FLow clouds.7 mph94%29.92 "HgN/A
12:00 am70 °FLow clouds.5 mph94%29.92 "HgN/A
11:00 pm
Sun, May 24
70 °FLow clouds.9 mph94%29.92 "HgN/A
10:00 pm70 °FLow clouds.9 mph88%29.92 "HgN/A
9:00 pm70 °FPassing clouds.9 mph88%29.89 "HgN/A
8:00 pm70 °FPassing clouds.7 mph88%29.89 "HgN/A
7:00 pm72 °FScattered clouds.9 mph83%29.86 "HgN/A
6:00 pm73 °FScattered clouds.9 mph78%29.86 "HgN/A
5:00 pm77 °FPassing clouds.12 mph69%29.89 "HgN/A
4:00 pm79 °FPassing clouds.12 mph70%29.89 "HgN/A
3:00 pm79 °FPassing clouds.9 mph65%29.89 "HgN/A
2:00 pm81 °FPassing clouds.12 mph62%29.89 "HgN/A
1:00 pm79 °FPassing clouds.9 mph65%29.92 "HgN/A
12:00 pm77 °FPassing clouds.9 mph65%29.95 "HgN/A
11:00 am77 °FScattered clouds.9 mph69%29.95 "HgN/A
10:00 am73 °FPartly sunny.9 mph74%29.95 "HgN/A
9:00 am70 °FPartly sunny.5 mph88%29.95 "HgN/A
8:00 am68 °FPartly sunny.5 mph88%29.92 "HgN/A
7:00 am68 °FPartly sunny.9 mph88%29.92 "HgN/A
Weather by CustomWeather, © 2020

See weather overview

Advertising